| time (UTC) | temp F | wind direction | speed MPH | gust MPH | rain 1hr in | rain 24hr in | rain mn in | humidity % | barometer mb |
| 20260502233008 | 78 | 305 | 0.0 | 5.0 | 0.00 | 0.00 | 0.00 | 79 | 1017.4 |
| 20260502231508 | 77 | 211 | 0.0 | 5.0 | 0.00 | 0.00 | 0.00 | 80 | 1017.5 |
| 20260502230014 | 76 | 316 | 1.0 | 4.0 | 0.00 | 0.00 | 0.00 | 82 | 1017.4 |
| 20260502224517 | 75 | 112 | 1.0 | 6.0 | 0.00 | 0.00 | 0.00 | 83 | 1017.3 |
| 20260502223032 | 74 | 63 | 1.0 | 6.0 | 0.00 | 0.00 | 0.00 | 84 | 1017.1 |
| 20260502221506 | 74 | 75 | 0.0 | 4.0 | 0.00 | 0.00 | 0.00 | 85 | 1017.0 |
| 20260502220008 | 72 | 73 | 0.0 | 2.0 | 0.00 | 0.00 | 0.00 | 86 | 1016.8 |
| 20260502214511 | 72 | 12 | 0.0 | 3.0 | 0.00 | 0.00 | 0.00 | 87 | 1016.7 |
| 20260502213015 | 70 | 73 | 1.0 | 4.0 | 0.00 | 0.00 | 0.00 | 87 | 1016.4 |
| 20260502211523 | 69 | 63 | 1.0 | 5.0 | 0.00 | 0.00 | 0.00 | 89 | 1016.3 |
| 20260502210007 | 69 | 63 | 2.0 | 6.0 | 0.00 | 0.00 | 0.00 | 89 | 1016.1 |
| 20260502204513 | 68 | 70 | 1.0 | 3.0 | 0.00 | 0.00 | 0.00 | 89 | 1015.9 |
| 20260502203017 | 68 | 87 | 1.0 | 4.0 | 0.00 | 0.00 | 0.00 | 89 | 1015.7 |
| 20260502201518 | 69 | 58 | 1.0 | 6.0 | 0.00 | 0.00 | 0.00 | 88 | 1015.5 |
| 20260502200022 | 69 | 53 | 2.0 | 7.0 | 0.00 | 0.00 | 0.00 | 88 | 1015.4 |
| 20260502194521 | 69 | 86 | 2.0 | 7.0 | 0.00 | 0.00 | 0.00 | 88 | 1015.4 |
| 20260502193012 | 69 | 37 | 1.0 | 4.0 | 0.00 | 0.00 | 0.00 | 88 | 1015.4 |
| 20260502191520 | 68 | 86 | 1.0 | 4.0 | 0.00 | 0.00 | 0.00 | 88 | 1015.4 |
| 20260502190025 | 68 | 91 | 1.0 | 5.0 | 0.00 | 0.00 | 0.00 | 89 | 1015.4 |
| 20260502184524 | 68 | 65 | 1.0 | 4.0 | 0.00 | 0.00 | 0.00 | 89 | 1015.4 |
| 20260502183027 | 68 | 77 | 1.0 | 3.0 | 0.00 | 0.00 | 0.00 | 88 | 1015.3 |
| 20260502181527 | 69 | 77 | 0.0 | 5.0 | 0.00 | 0.00 | 0.00 | 88 | 1015.3 |
| 20260502163008 | 68 | 84 | 0.0 | 3.0 | 0.00 | 0.00 | 0.00 | 88 | 1015.8 |
| 20260502161505 | 68 | 47 | 1.0 | 6.0 | 0.00 | 0.00 | 0.00 | 86 | 1015.9 |
| 20260502151517 | 68 | 107 | 2.0 | 4.0 | 0.00 | 0.00 | 0.00 | 86 | 1016.4 |
| 20260502123022 | 69 | 75 | 0.0 | 3.0 | 0.00 | 0.00 | 0.00 | 86 | 1017.5 |
| 20260502121509 | 69 | 75 | 0.0 | 3.0 | 0.00 | 0.00 | 0.00 | 85 | 1017.6 |
| 20260502114508 | 70 | 77 | 0.0 | 5.0 | 0.00 | 0.00 | 0.00 | 85 | 1017.9 |
| 20260502113006 | 70 | 23 | 2.0 | 9.0 | 0.00 | 0.00 | 0.00 | 85 | 1017.9 |
| 20260502111511 | 70 | 33 | 0.0 | 3.0 | 0.00 | 0.00 | 0.00 | 87 | 1017.9 |
| 20260502110017 | 70 | 43 | 0.0 | 4.0 | 0.00 | 0.00 | 0.00 | 87 | 1017.8 |
| 20260502104509 | 70 | 25 | 0.0 | 5.0 | 0.00 | 0.00 | 0.00 | 88 | 1017.9 |
| 20260502103012 | 71 | 81 | 1.0 | 6.0 | 0.00 | 0.00 | 0.00 | 89 | 1017.9 |
| 20260502101512 | 71 | 77 | 1.0 | 6.0 | 0.00 | 0.00 | 0.00 | 89 | 1017.8 |
| 20260502091512 | 71 | 137 | 0.0 | 3.0 | 0.00 | 0.00 | 0.00 | 88 | 1016.9 |
| 20260502071504 | 73 | 86 | 0.0 | 3.0 | 0.00 | 0.00 | 0.00 | 86 | 1015.8 |
| 20260502070005 | 74 | 140 | 0.0 | 4.0 | 0.00 | 0.00 | 0.00 | 86 | 1015.7 |
| 20260502064507 | 75 | 140 | 0.0 | 3.0 | 0.00 | 0.00 | 0.00 | 85 | 1015.5 |
| 20260502063006 | 75 | 106 | 0.0 | 7.0 | 0.00 | 0.00 | 0.00 | 84 | 1015.4 |
| 20260502061530 | 76 | 212 | 0.0 | 3.0 | 0.00 | 0.00 | 0.00 | 84 | 1015.4 |
| 20260502060006 | 76 | 248 | 1.0 | 4.0 | 0.00 | 0.00 | 0.00 | 82 | 1015.3 |
| 20260502054505 | 77 | 217 | 0.0 | 2.0 | 0.00 | 0.00 | 0.00 | 82 | 1015.4 |
| 20260502053008 | 77 | 242 | 1.0 | 4.0 | 0.00 | 0.00 | 0.00 | 80 | 1015.4 |
| 20260502051521 | 78 | 129 | 0.0 | 5.0 | 0.00 | 0.00 | 0.00 | 80 | 1015.5 |
| 20260502050018 | 78 | 98 | 1.0 | 4.0 | 0.00 | 0.00 | 0.00 | 79 | 1015.5 |
| 20260502044505 | 78 | 102 | 0.0 | 3.0 | 0.00 | 0.00 | 0.00 | 79 | 1015.5 |
| 20260502043006 | 79 | 350 | 0.0 | 3.0 | 0.00 | 0.00 | 0.00 | 80 | 1015.6 |
| 20260502041519 | 79 | 181 | 0.0 | 6.0 | 0.00 | 0.00 | 0.00 | 77 | 1015.7 |
| 20260502040015 | 79 | 115 | 1.0 | 3.0 | 0.00 | 0.00 | 0.00 | 76 | 1015.8 |
| 20260502034517 | 79 | 71 | 1.0 | 4.0 | 0.00 | 0.00 | 0.00 | 74 | 1016.0 |
| 20260502033004 | 80 | 231 | 0.0 | 4.0 | 0.00 | 0.00 | 0.00 | 76 | 1016.1 |
| 20260502031506 | 81 | 115 | 0.0 | 1.0 | 0.00 | 0.00 | 0.00 | 74 | 1016.3 |
| 20260502030010 | 80 | 269 | 1.0 | 4.0 | 0.00 | 0.00 | 0.00 | 76 | 1016.5 |
| 20260502024515 | 80 | 57 | 0.0 | 4.0 | 0.00 | 0.00 | 0.00 | 76 | 1016.7 |
| 20260502023019 | 80 | 265 | 0.0 | 6.0 | 0.00 | 0.00 | 0.00 | 78 | 1017.0 |
| 20260502021520 | 80 | 120 | 1.0 | 4.0 | 0.00 | 0.00 | 0.00 | 75 | 1017.3 |
| 20260502020008 | 80 | 143 | 0.0 | 4.0 | 0.00 | 0.00 | 0.00 | 76 | 1017.5 |
| 20260502014509 | 79 | 201 | 1.0 | 5.0 | 0.00 | 0.00 | 0.00 | 75 | 1017.7 |
| 20260502013016 | 79 | 29 | 0.0 | 5.0 | 0.00 | 0.00 | 0.00 | 76 | 1017.9 |
| 20260502011523 | 79 | 264 | 1.0 | 4.0 | 0.00 | 0.00 | 0.00 | 76 | 1018.0 |
| 20260502010022 | 79 | 245 | 0.0 | 5.0 | 0.00 | 0.00 | 0.00 | 77 | 1018.1 |
| 20260502004508 | 79 | 61 | 1.0 | 5.0 | 0.00 | 0.00 | 0.00 | 78 | 1018.2 |
| 20260502003013 | 79 | 105 | 0.0 | 6.0 | 0.00 | 0.00 | 0.00 | 78 | 1018.5 |
| 20260502001515 | 78 | 101 | 1.0 | 6.0 | 0.00 | 0.00 | 0.00 | 76 | 1018.8 |
| 20260502000019 | 78 | 81 | 1.0 | 5.0 | 0.00 | 0.00 | 0.00 | 77 | 1018.8 |
| 20260501234522 | 77 | 71 | 2.0 | 6.0 | 0.00 | 0.00 | 0.00 | 79 | 1018.8 |